Location: Kalberh�ni
(46.4610°N, 7.2453°E)
Time: 17:22:27
(UTC+00:00)

Meteor 2-1 Rocket - Pass Details

Date: 24 October 2021
Orbit: 830 x 906 km, 81.3° (Epoch: 28 November)

Event Time Altitude Azimuth Distance (km) Brightness Sun altitude
Rises 04:37:25 0° 1° (N) 3,386 7.3 -15.0°
Reaches altitude 10° 04:40:43 10° 21° (NNE) 2,450 6.9 -14.5°
Maximum altitude 04:44:18 17° 62° (ENE) 1,986 7.0 -13.8°
Drops below altitude 10° 04:47:53 10° 102° (ESE) 2,454 8.0 -13.2°
Sets 04:51:10 0° 122° (ESE) 3,395 8.5 -12.7°
